Total_Precipitation_Accumulation
1.91 2.34 2.65 3.21 3.81 4.20 4.58 4.74 4.76 4.68 4.51 4.14 3.82 3.58 3.34 3.13 2.87 2.69 2.61 2.50 2.39 2.56 2.98 2.85 3.09 3.05 3.05 3.07 3.13 3.26 3.18 2.86 3.05 3.13 2.66 2.05 1.61 1.60 1.39 1.33 1.37 1.41 1.42
1.81 2.34 2.65 2.87 3.33 3.84 4.30 4.60 4.75 4.65 4.27 3.90 3.70 3.58 3.51 3.11 2.81 2.77 2.87 2.72 2.72 2.75 2.79 2.97 2.95 3.02 3.12 3.06 3.05 3.18 3.02 2.66 2.89 3.20 3.25 2.58 2.13 1.67 1.23 1.34 1.44 1.55 1.65
2.08 2.34 2.54 2.70 2.99 3.38 3.69 3.81 3.97 3.94 3.79 3.82 3.83 3.76 3.73 3.29 3.18 3.17 3.15 2.95 2.95 2.96 2.97 2.95 2.88 2.88 2.69 2.74 2.81 2.85 2.87 2.80 2.73 3.03 3.32 2.89 2.37 2.01 1.47 1.35 1.38 1.58 1.83
1.72 1.87 2.19 2.51 2.69 2.92 3.27 3.50 3.56 3.52 3.43 3.54 3.59 3.47 3.27 3.11 3.23 3.52 3.47 3.19 2.97 2.81 2.62 2.56 2.71 2.73 2.53 2.54 2.23 2.36 2.57 2.59 2.45 2.70 2.76 2.78 2.76 2.65 1.98 1.52 1.36 1.51 1.70
1.46 1.57 1.78 2.10 2.22 2.53 2.82 3.07 3.33 3.43 3.38 3.43 3.38 3.40 3.26 3.26 3.30 3.28 3.29 3.09 2.88 2.54 2.22 2.24 2.41 2.40 2.33 2.22 2.10 2.27 2.17 2.13 2.18 2.38 2.57 2.65 2.70 2.60 2.43 2.01 1.90 1.84 1.71
1.31 1.50 1.66 1.89 2.02 2.17 2.29 2.43 2.65 2.93 3.10 3.16 3.14 3.17 3.13 3.11 3.04 2.94 2.82 2.63 2.47 2.21 1.95 1.87 2.03 2.15 2.17 2.11 2.08 2.17 2.07 2.09 2.23 2.22 2.28 2.52 2.52 2.48 2.63 2.26 2.09 2.02 1.75
1.02 1.24 1.37 1.49 1.63 1.75 1.86 1.99 2.18 2.52 2.69 2.69 2.68 2.80 2.86 2.87 2.79 2.75 2.60 2.39 2.16 1.88 1.83 1.85 1.95 2.01 2.06 1.92 2.00 2.06 2.10 2.22 2.28 2.22 2.15 2.28 2.33 2.43 2.63 2.56 2.31 2.19 1.98
0.79 0.95 1.17 1.38 1.44 1.47 1.59 1.74 1.97 2.20 2.31 2.26 2.39 2.61 2.68 2.78 2.66 2.69 2.45 2.20 2.00 1.89 1.95 1.93 1.81 1.76 1.87 1.77 2.03 1.97 2.01 2.19 2.23 2.02 2.26 2.31 2.32 2.58 2.76 2.83 2.90 2.64 2.39
0.78 0.85 0.94 1.11 1.16 1.21 1.33 1.48 1.84 2.12 2.24 2.27 2.41 2.51 2.58 2.56 2.47 2.39 2.22 2.02 2.02 1.96 2.07 2.02 1.92 1.82 1.89 2.01 2.28 2.22 2.19 2.39 2.34 2.29 2.48 2.45 2.41 2.57 2.68 2.86 3.03 3.10 2.79
0.57 0.66 0.71 0.81 0.93 1.13 1.39 1.54 1.68 1.98 2.10 2.12 2.21 2.24 2.41 2.36 2.25 2.18 2.01 1.86 1.77 1.81 1.97 2.11 2.04 1.97 2.00 2.16 2.34 2.35 2.50 2.64 2.59 2.63 2.73 2.69 2.56 2.66 2.74 2.76 2.95 3.18 3.09
0.47 0.54 0.69 0.81 0.98 1.14 1.31 1.38 1.43 1.59 1.73 1.83 2.02 2.01 2.00 2.11 2.17 2.04 1.82 1.74 1.73 1.76 1.83 2.02 2.10 2.07 2.10 2.19 2.24 2.23 2.52 2.64 2.62 2.59 2.60 2.59 2.70 2.72 2.65 2.72 2.85 3.08 3.13
0.54 0.60 0.79 0.95 1.05 1.19 1.22 1.22 1.26 1.40 1.55 1.73 1.92 2.00 2.01 2.05 2.06 1.94 1.76 1.70 1.73 1.80 1.87 1.99 2.01 1.93 1.93 2.11 2.15 2.22 2.48 2.61 2.51 2.49 2.50 2.31 2.36 2.42 2.31 2.42 2.48 2.60 2.81
0.66 0.75 0.86 0.90 0.91 1.01 1.12 1.10 1.08 1.23 1.41 1.62 1.96 2.12 2.13 2.07 1.99 1.82 1.62 1.57 1.62 1.74 1.80 1.81 1.83 1.88 1.98 2.07 2.08 2.09 2.11 2.14 2.23 2.45 2.55 2.35 2.33 2.23 2.21 2.23 2.19 2.26 2.38
0.72 0.83 0.85 0.93 0.90 0.87 0.96 0.95 0.99 1.09 1.32 1.51 1.72 1.83 1.74 1.70 1.71 1.63 1.53 1.48 1.52 1.60 1.69 1.76 1.84 1.90 1.94 1.97 2.03 2.07 2.03 2.02 2.07 2.21 2.27 2.25 2.21 2.15 2.23 2.14 2.11 2.17 2.29
0.66 0.73 0.74 0.78 0.81 0.82 0.90 0.85 0.85 0.90 1.04 1.22 1.33 1.47 1.48 1.46 1.46 1.51 1.55 1.58 1.66 1.66 1.73 1.79 1.81 1.81 1.79 1.69 1.72 1.78 1.82 1.96 1.93 1.84 1.86 1.88 1.91 1.92 1.93 1.79 1.93 2.12 2.23
0.47 0.45 0.62 0.71 0.67 0.67 0.71 0.67 0.72 0.85 0.99 1.09 1.19 1.39 1.53 1.56 1.57 1.60 1.69 1.73 1.73 1.74 1.77 1.74 1.78 1.77 1.52 1.65 1.65 1.64 1.77 1.88 1.88 1.78 1.68 1.59 1.59 1.54 1.54 1.51 1.58 1.82 2.00
0.44 0.40 0.49 0.64 0.60 0.59 0.61 0.70 0.83 0.96 1.08 1.22 1.35 1.53 1.64 1.73 1.74 1.70 1.80 1.78 1.79 1.84 1.80 1.73 1.72 1.76 1.80 1.82 1.65 1.51 1.50 1.62 1.68 1.66 1.64 1.46 1.37 1.52 1.48 1.52 1.48 1.50 1.63
0.45 0.45 0.46 0.49 0.52 0.57 0.64 0.79 1.06 1.28 1.32 1.47 1.65 1.76 1.86 1.82 1.80 1.80 1.82 1.89 1.97 2.00 1.96 1.90 1.84 1.85 1.83 1.76 1.54 1.54 1.48 1.53 1.57 1.60 1.65 1.65 1.56 1.58 1.68 1.65 1.58 1.47 1.42
0.46 0.49 0.55 0.57 0.63 0.65 0.69 0.90 1.12 1.37 1.51 1.57 1.70 1.87 1.97 2.00 2.02 2.04 2.00 2.05 2.13 2.09 2.01 1.98 2.03 1.98 1.99 2.03 1.82 1.80 1.67 1.71 1.76 1.80 1.80 1.75 1.65 1.74 1.67 1.61 1.61 1.54 1.51
0.57 0.56 0.61 0.73 0.86 0.92 0.96 1.10 1.21 1.35 1.53 1.61 1.73 1.91 2.14 2.20 2.22 2.36 2.43 2.35 2.31 2.17 2.18 2.18 2.17 2.18 2.21 2.43 2.23 2.03 1.88 1.92 1.93 2.02 2.00 2.00 1.81 1.77 1.68 1.56 1.59 1.60 1.61
0.67 0.67 0.71 0.85 1.03 1.16 1.22 1.32 1.45 1.55 1.57 1.66 1.79 1.99 2.17 2.26 2.34 2.49 2.56 2.52 2.46 2.43 2.37 2.30 2.33 2.32 2.34 2.50 2.27 2.07 1.95 2.02 2.15 2.14 2.05 2.08 2.03 1.82 1.78 1.70 1.65 1.65 1.61
0.78 0.80 0.87 1.02 1.22 1.39 1.35 1.41 1.48 1.52 1.59 1.60 1.71 1.84 2.01 2.04 2.13 2.39 2.47 2.52 2.55 2.49 2.41 2.34 2.22 2.24 2.24 2.20 2.09 2.00 1.94 2.03 2.14 2.19 2.11 2.07 2.01 1.75 1.64 1.51 1.48 1.48 1.38
0.83 0.86 0.93 1.13 1.37 1.53 1.55 1.61 1.51 1.58 1.63 1.65 1.78 1.92 1.99 2.05 2.16 2.26 2.28 2.35 2.43 2.38 2.27 2.25 2.18 2.16 2.18 2.16 1.93 1.72 1.69 1.73 1.76 1.90 1.99 1.90 1.78 1.56 1.36 1.31 1.28 1.17 1.05
0.78 0.83 0.92 1.01 1.11 1.31 1.48 1.58 1.64 1.69 1.70 1.72 1.77 1.85 1.96 1.97 2.01 2.14 2.23 2.34 2.44 2.51 2.40 2.29 2.20 2.18 2.13 2.00 1.81 1.62 1.54 1.62 1.73 1.80 1.83 1.70 1.58 1.39 1.26 1.19 1.09 1.02 1.05
0.81 0.83 0.91 0.92 0.99 1.08 1.20 1.29 1.41 1.52 1.57 1.60 1.66 1.71 1.75 1.83 1.92 1.96 2.04 2.06 2.16 2.18 2.16 2.10 2.08 2.07 2.01 1.85 1.76 1.61 1.49 1.56 1.70 1.77 1.80 1.67 1.62 1.53 1.40 1.30 1.23 1.19 1.19
0.88 0.89 0.90 0.88 0.91 0.98 1.13 1.25 1.36 1.48 1.60 1.67 1.70 1.63 1.58 1.65 1.70 1.74 1.73 1.75 1.70 1.72 1.69 1.70 1.70 1.65 1.59 1.46 1.33 1.30 1.31 1.36 1.50 1.54 1.67 1.73 1.69 1.63 1.53 1.40 1.28 1.22 1.18